Home   Weather   Luhansk   Past weeks

Flag for Ukraine Past Weather in Luhansk, Ukraine — Yesterday and Last 2 Weeks

Now
64 °F

Passing clouds.


Feels Like: 64 °F
Forecast: 49 / 71 °F
Wind: 6 mph from Southwest

Location: Rostov-Na-Donu

Current Time: Oct 1, 2016 at 1:26:40 PM

Latest Report: Oct 1, 2016 at 1:00 PM


Visibility: N/A

Pressure: 30.24 "Hg

Humidity: 60%

Dew Point: 50 °F

Location of LuhanskLocation

Past Weather in Luhansk — Graph

°F

Luhansk Temperature Yesterday

Maximum temperature yesterday: 63 °F (at 3:30 PM)
Minimum temperature yesterday: 48 °F (at 11:00 PM)
Average temperature yesterday: 54 °F

High & Low Weather Summary for the Past Weeks

 TemperatureHumidityPressure
High73 °F (Sep 17, 12:30 PM)100% (Oct 1, 7:30 AM)30.27 "Hg (Oct 1, 7:30 AM)
Low43 °F (Sep 23, 2:00 AM)32% (Sep 16, 12:00 PM)29.50 "Hg (Sep 21, 4:30 AM)
Average55 °F74%29.96 "Hg
* Reported Sep 16 12:00 PM — Oct 1 12:00 PM, Luhansk, Weather by CustomWeather, © 2016

Note: Actual official high and low records may vary slightly from our data, if they occured in-between our weather recording intervals... More about our weather records

Advertising

Luhansk Weather History for the Previous 24 Hours

Scroll right to see more
 ConditionsComfort  
Time TempWeatherWind HumidityBarometerVisibility
12:00 PM
Sat, Oct 1
63 °FScattered clouds.6 mph68%30.24 "HgN/A
11:30 AM63 °FScattered clouds.6 mph68%30.27 "HgN/A
11:00 AM61 °FScattered clouds.8 mph72%30.27 "HgN/A
10:30 AM59 °FPassing clouds.8 mph77%30.27 "HgN/A
10:00 AM57 °FPassing clouds.6 mph77%30.27 "Hg5 mi
9:30 AM55 °FPassing clouds.3 mph88%30.27 "Hg4 mi
9:00 AM52 °FFog.1 mph100%30.27 "Hg3 mi
8:30 AM50 °FCool.3 mph94%30.24 "Hg2 mi
8:00 AM50 °FFog.1 mph100%30.24 "Hg2 mi
7:30 AM48 °FFog.1 mph100%30.24 "Hg1 mi
7:00 AM45 °FQuite cool.1 mph93%30.24 "Hg1 mi
6:30 AM46 °FCool.1 mph93%30.24 "Hg0 mi
6:00 AM45 °FQuite cool.No wind93%30.24 "Hg0 mi
5:00 AM45 °FFog.No wind93%30.24 "Hg1 mi
4:30 AM45 °FFog.1 mph93%30.24 "Hg2 mi
4:00 AM45 °FFog.No wind93%30.24 "Hg2 mi
3:30 AM46 °FFog.No wind93%30.24 "Hg2 mi
3:00 AM46 °FFog.No wind93%30.24 "Hg2 mi
2:30 AM46 °FFog.No wind93%30.24 "Hg3 mi
2:00 AM46 °FFog.No wind93%30.24 "Hg3 mi
1:30 AM46 °FFog.No wind93%30.24 "Hg3 mi
1:00 AM48 °FFog.No wind87%30.24 "Hg2 mi
12:00 AM48 °FFog.No wind94%30.21 "Hg3 mi
11:30 PM
Fri, Sep 30
48 °FFog.No wind94%30.21 "Hg4 mi
11:00 PM48 °FFog.No wind94%30.21 "Hg4 mi
10:30 PM50 °FClear.No wind88%30.24 "Hg4 mi
10:00 PM50 °FFog.No wind88%30.21 "Hg3 mi
9:30 PM50 °FFog.1 mph88%30.21 "Hg3 mi
9:00 PM50 °FClear.No wind88%30.21 "Hg4 mi
8:30 PM52 °FClear.No wind82%30.21 "Hg4 mi
8:00 PM50 °FClear.1 mph88%30.21 "Hg5 mi
7:30 PM52 °FClear.1 mph82%30.21 "Hg5 mi
7:00 PM54 °FClear.1 mph77%30.21 "Hg5 mi
6:30 PM55 °FClear.3 mph72%30.18 "Hg5 mi
6:00 PM57 °FSunny.1 mph63%30.18 "Hg10 mi
5:30 PM61 °FPassing clouds.1 mph59%30.18 "HgN/A
5:00 PM61 °FScattered clouds.3 mph55%30.18 "HgN/A
4:30 PM63 °FScattered clouds.3 mph52%30.15 "HgN/A
4:00 PM63 °FScattered clouds.3 mph52%30.15 "HgN/A
3:30 PM63 °FScattered clouds.3 mph52%30.15 "HgN/A
3:00 PM61 °FScattered clouds.1 mph59%30.18 "HgN/A
2:30 PM61 °FScattered clouds.3 mph59%30.15 "HgN/A
2:00 PM61 °FScattered clouds.1 mph59%30.15 "HgN/A
1:30 PM59 °FScattered clouds.3 mph63%30.15 "HgN/A
1:00 PM59 °FScattered clouds.6 mph63%30.15 "HgN/A
Weather by CustomWeather, © 2016

See weather overviewHow to use our weather pages